GPS Operational
NORAD ID: 23027
Int'l Code: 1994-016A
Perigee: 19,972.8 km
Apogee: 20,406.1 km
Inclination: 53.9 °
Period: 718.0 minutes
Semi major axis: 26560 km
Launch date: March 10, 1994
Source: United States (US)
PRN: 6
Two Line Element Set (TLE):
1 23027U 94016A 13144.42136708 .00000003 00000-0 00000+0 0 3297
2 23027 053.9239 096.2311 0081564 340.4954 134.7582 02.00562365140758
Source: AFSPC
NASA's NSSDC Master Catalog entry for NAVSTAR 36 (USA 100)